• In Uzbekistan
  • List of Countries
  • For 7 days
  • Water Temperature
  • Satellite Maps
  • Weather Map
  • Weather Widgets
  • user-avatar
    Login

    Hourly Weather Brisbane

    Today, 18 January, Wednesday

    Time Temperature Precipitation Wind Pressure Humidity
    00:00 +24°C° 0 mm 3 mps 759 mmHg 89%
    01:00 +24°C° 0 mm 3 mps 759 mmHg 91%
    02:00 +22°C° 0 mm 3 mps 759 mmHg 91%
    03:00 +22°C° 0 mm 3 mps 758 mmHg 91%
    04:00 +22°C° 0 mm 4 mps 758 mmHg 90%
    05:00 +23°C° 0 mm 4 mps 758 mmHg 85%
    06:00 +25°C° 0 mm 4 mps 758 mmHg 79%
    07:00 +26°C° 0 mm 4 mps 759 mmHg 73%
    08:00 +29°C° 0 mm 4 mps 758 mmHg 64%
    09:00 +33°C° 0 mm 4 mps 758 mmHg 54%
    10:00 +34°C° 0 mm 3 mps 758 mmHg 48%
    11:00 +36°C° 0 mm 3 mps 757 mmHg 43%
    12:00 +38°C° 0 mm 4 mps 757 mmHg 38%
    13:00 +41°C° 0 mm 4 mps 756 mmHg 34%
    14:00 +40°C° 0 mm 4 mps 756 mmHg 35%
    15:00 +40°C° 0 mm 5 mps 755 mmHg 36%
    16:00 +40°C° 0 mm 6 mps 755 mmHg 38%
    17:00 +36°C° 0 mm 6 mps 755 mmHg 47%
    18:00 +34°C° 0 mm 6 mps 755 mmHg 56%
    19:00 +30°C° 0 mm 6 mps 755 mmHg 65%
    20:00 +30°C° 0 mm 6 mps 755 mmHg 66%
    21:00 +29°C° 0 mm 5 mps 755 mmHg 68%
    22:00 +28°C° 0 mm 5 mps 755 mmHg 69%
    23:00 +28°C° 0 mm 4 mps 755 mmHg 69%

    Tomorrow, 19 January, Thursday

    Time Temperature Precipitation Wind Pressure Humidity
    00:00 +27°C° 0 mm 4 mps 754 mmHg 70%
    01:00 +27°C° 0 mm 3 mps 754 mmHg 70%
    02:00 +27°C° 0.1 mm 3 mps 754 mmHg 71%
    03:00 +27°C° 0.1 mm 3 mps 754 mmHg 71%
    04:00 +27°C° 0.1 mm 2 mps 755 mmHg 72%
    05:00 +27°C° 0 mm 3 mps 755 mmHg 73%
    06:00 +27°C° 0 mm 4 mps 756 mmHg 74%
    07:00 +28°C° 0 mm 4 mps 756 mmHg 75%
    08:00 +29°C° 0 mm 5 mps 756 mmHg 73%
    09:00 +30°C° 0 mm 5 mps 756 mmHg 70%
    10:00 +32°C° 0 mm 5 mps 756 mmHg 68%
    11:00 +33°C° 0 mm 6 mps 756 mmHg 64%
    12:00 +34°C° 0 mm 6 mps 756 mmHg 61%
    13:00 +34°C° 0 mm 7 mps 755 mmHg 58%
    14:00 +34°C° 0.1 mm 7 mps 755 mmHg 60%
    15:00 +33°C° 0.1 mm 7 mps 755 mmHg 63%
    16:00 +32°C° 0.1 mm 7 mps 755 mmHg 65%
    17:00 +29°C° 0.6 mm 7 mps 755 mmHg 73%
    18:00 +28°C° 0.6 mm 6 mps 755 mmHg 80%
    19:00 +26°C° 0.6 mm 6 mps 756 mmHg 87%
    20:00 +25°C° 0.6 mm 5 mps 756 mmHg 88%
    21:00 +25°C° 0.6 mm 5 mps 757 mmHg 89%
    22:00 +25°C° 0.6 mm 5 mps 757 mmHg 91%
    23:00 +25°C° 0.4 mm 4 mps 757 mmHg 91%

    Day after tomorrow, 20 January, Friday

    Time Temperature Precipitation Wind Pressure Humidity
    00:00 +25°C° 0.4 mm 4 mps 756 mmHg 91%
    01:00 +25°C° 0.4 mm 3 mps 756 mmHg 91%
    02:00 +24°C° 0.1 mm 3 mps 756 mmHg 91%
    03:00 +24°C° 0.1 mm 2 mps 755 mmHg 92%
    04:00 +24°C° 0.1 mm 2 mps 755 mmHg 92%
    05:00 +25°C° 0.2 mm 2 mps 756 mmHg 89%
    06:00 +25°C° 0.2 mm 2 mps 756 mmHg 86%
    07:00 +26°C° 0.2 mm 1 mps 756 mmHg 83%
    08:00 +27°C° 0.1 mm 1 mps 756 mmHg 78%
    09:00 +29°C° 0.1 mm 2 mps 756 mmHg 72%
    10:00 +30°C° 0.1 mm 2 mps 756 mmHg 66%
    11:00 +31°C° 0 mm 2 mps 755 mmHg 64%
    12:00 +32°C° 0 mm 2 mps 754 mmHg 63%
    13:00 +32°C° 0 mm 2 mps 754 mmHg 61%
    14:00 +34°C° 0.3 mm 3 mps 753 mmHg 60%
    15:00 +35°C° 0.3 mm 3 mps 752 mmHg 59%
    16:00 +35°C° 0.3 mm 4 mps 752 mmHg 58%
    17:00 +34°C° 0.1 mm 4 mps 752 mmHg 65%
    18:00 +32°C° 0.1 mm 5 mps 752 mmHg 73%
    19:00 +29°C° 0.1 mm 5 mps 753 mmHg 81%
    20:00 +29°C° 0 mm 5 mps 753 mmHg 83%
    21:00 +28°C° 0 mm 5 mps 753 mmHg 86%
    22:00 +28°C° 0 mm 5 mps 753 mmHg 89%
    23:00 +28°C° 0 mm 4 mps 753 mmHg 88%

    21 January, Saturday

    Time Temperature Precipitation Wind Pressure Humidity
    00:00 +28°C° 0 mm 4 mps 752 mmHg 87%
    01:00 +27°C° 0 mm 3 mps 752 mmHg 86%
    02:00 +27°C° 0.1 mm 3 mps 752 mmHg 86%
    03:00 +26°C° 0.1 mm 3 mps 752 mmHg 87%
    04:00 +26°C° 0.1 mm 3 mps 752 mmHg 87%
    05:00 +27°C° 0.5 mm 3 mps 752 mmHg 84%
    06:00 +28°C° 0.5 mm 4 mps 753 mmHg 81%
    07:00 +29°C° 0.5 mm 4 mps 753 mmHg 78%
    08:00 +33°C° 0.1 mm 4 mps 754 mmHg 67%
    09:00 +35°C° 0.1 mm 4 mps 754 mmHg 56%
    10:00 +38°C° 0.1 mm 4 mps 754 mmHg 45%
    11:00 +40°C° 0.3 mm 4 mps 753 mmHg 45%
    12:00 +40°C° 0.3 mm 5 mps 753 mmHg 45%
    13:00 +41°C° 0.3 mm 5 mps 753 mmHg 44%
    14:00 +38°C° 0.3 mm 6 mps 753 mmHg 56%
    15:00 +34°C° 0.3 mm 7 mps 753 mmHg 68%
    16:00 +32°C° 0.3 mm 8 mps 753 mmHg 79%
    17:00 +30°C° 0.4 mm 7 mps 754 mmHg 82%
    18:00 +28°C° 0.4 mm 7 mps 755 mmHg 85%
    19:00 +27°C° 0.4 mm 6 mps 756 mmHg 88%
    20:00 +27°C° 0.4 mm 6 mps 757 mmHg 88%
    21:00 +27°C° 0.4 mm 5 mps 757 mmHg 89%
    22:00 +27°C° 0.4 mm 5 mps 758 mmHg 90%
    23:00 +27°C° 0.2 mm 5 mps 757 mmHg 90%

    22 January, Sunday

    Time Temperature Precipitation Wind Pressure Humidity
    00:00 +26°C° 0.2 mm 5 mps 757 mmHg 90%
    01:00 +26°C° 0.2 mm 5 mps 757 mmHg 90%
    02:00 +26°C° 0 mm 5 mps 757 mmHg 90%
    03:00 +26°C° 0 mm 5 mps 757 mmHg 89%
    04:00 +26°C° 0 mm 5 mps 757 mmHg 89%
    05:00 +26°C° 0 mm 5 mps 757 mmHg 87%
    06:00 +26°C° 0 mm 6 mps 758 mmHg 86%
    07:00 +26°C° 0 mm 6 mps 759 mmHg 84%
    08:00 +26°C° 0.1 mm 6 mps 759 mmHg 82%
    09:00 +27°C° 0.1 mm 6 mps 759 mmHg 80%
    10:00 +27°C° 0.1 mm 6 mps 760 mmHg 79%
    11:00 +27°C° 0.1 mm 6 mps 759 mmHg 75%
    12:00 +27°C° 0.1 mm 7 mps 759 mmHg 71%
    13:00 +28°C° 0.1 mm 7 mps 759 mmHg 67%
    14:00 +28°C° 0 mm 7 mps 758 mmHg 66%
    15:00 +28°C° 0 mm 7 mps 758 mmHg 64%
    16:00 +29°C° 0 mm 7 mps 758 mmHg 62%
    17:00 +28°C° 0 mm 6 mps 758 mmHg 65%
    18:00 +27°C° 0 mm 5 mps 759 mmHg 68%
    19:00 +26°C° 0 mm 5 mps 760 mmHg 71%
    20:00 +25°C° 0 mm 4 mps 760 mmHg 75%
    21:00 +23°C° 0 mm 4 mps 760 mmHg 79%
    22:00 +22°C° 0 mm 4 mps 761 mmHg 82%
    23:00 +22°C° 0 mm 4 mps 760 mmHg 83%

    23 January, Monday

    Time Temperature Precipitation Wind Pressure Humidity
    00:00 +22°C° 0 mm 4 mps 759 mmHg 84%
    01:00 +21°C° 0 mm 4 mps 759 mmHg 86%
    02:00 +22°C° 0 mm 4 mps 759 mmHg 85%
    03:00 +22°C° 0 mm 4 mps 759 mmHg 84%
    04:00 +22°C° 0 mm 4 mps 759 mmHg 83%
    05:00 +22°C° 0 mm 4 mps 759 mmHg 79%
    06:00 +23°C° 0 mm 4 mps 760 mmHg 76%
    07:00 +25°C° 0 mm 4 mps 760 mmHg 72%
    08:00 +26°C° 0 mm 5 mps 760 mmHg 67%
    09:00 +28°C° 0 mm 5 mps 760 mmHg 62%
    10:00 +29°C° 0 mm 5 mps 760 mmHg 56%
    11:00 +30°C° 0 mm 5 mps 760 mmHg 55%
    12:00 +30°C° 0 mm 5 mps 759 mmHg 53%
    13:00 +32°C° 0 mm 5 mps 759 mmHg 52%
    14:00 +30°C° 0 mm 5 mps 759 mmHg 52%
    15:00 +30°C° 0 mm 4 mps 758 mmHg 53%
    16:00 +30°C° 0 mm 4 mps 758 mmHg 53%
    17:00 +28°C° 0 mm 4 mps 758 mmHg 60%
    18:00 +27°C° 0 mm 4 mps 759 mmHg 66%
    19:00 +25°C° 0 mm 3 mps 759 mmHg 72%
    20:00 +24°C° 0 mm 3 mps 759 mmHg 76%
    21:00 +23°C° 0 mm 2 mps 759 mmHg 80%
    22:00 +21°C° 0 mm 2 mps 760 mmHg 84%
    23:00 +21°C° 0 mm 2 mps 760 mmHg 86%
    Show more